• In France
  • List of Countries
  • For 7 days
  • Water Temperature
  • Satellite Maps
  • Weather Map
  • Weather Widgets
  • user-avatar
    Login

    Hourly Weather Okoyo

    Today, 20 February, Tuesday

    Time Temperature Precipitation Wind Pressure Humidity
    00:00 +25°C° 0 mm 2 mps 723 mmHg 86%
    01:00 +25°C° 0 mm 2 mps 723 mmHg 87%
    02:00 +25°C° 0 mm 2 mps 723 mmHg 87%
    03:00 +25°C° 0 mm 2 mps 722 mmHg 88%
    04:00 +25°C° 0 mm 2 mps 722 mmHg 89%
    05:00 +25°C° 0.1 mm 2 mps 722 mmHg 89%
    06:00 +25°C° 0.1 mm 2 mps 723 mmHg 89%
    07:00 +25°C° 0 mm 2 mps 723 mmHg 88%
    08:00 +26°C° 0.3 mm 2 mps 723 mmHg 85%
    09:00 +26°C° 0.3 mm 2 mps 723 mmHg 82%
    10:00 +27°C° 0.3 mm 2 mps 723 mmHg 79%
    11:00 +28°C° 0.2 mm 2 mps 723 mmHg 76%
    12:00 +28°C° 0.2 mm 2 mps 722 mmHg 72%
    13:00 +29°C° 0 mm 2 mps 722 mmHg 69%
    14:00 +29°C° 0.1 mm 2 mps 722 mmHg 69%
    15:00 +29°C° 0.1 mm 3 mps 721 mmHg 68%
    16:00 +29°C° 0.1 mm 3 mps 721 mmHg 68%
    17:00 +28°C° 0 mm 2 mps 721 mmHg 72%
    18:00 +27°C° 0 mm 1 mps 721 mmHg 76%
    19:00 +26°C° 0 mm 1 mps 721 mmHg 81%
    20:00 +26°C° 0 mm 1 mps 721 mmHg 81%
    21:00 +26°C° 0 mm 1 mps 722 mmHg 81%
    22:00 +24°C° 0 mm 0 mps 722 mmHg 81%
    23:00 +26°C° 0 mm 1 mps 722 mmHg 81%

    Tomorrow, 21 February, Wednesday

    Time Temperature Precipitation Wind Pressure Humidity
    00:00 +25°C° 0 mm 1 mps 722 mmHg 81%
    01:00 +25°C° 0 mm 1 mps 722 mmHg 81%
    02:00 +25°C° 0 mm 1 mps 722 mmHg 81%
    03:00 +25°C° 0 mm 1 mps 722 mmHg 82%
    04:00 +24°C° 0 mm 1 mps 721 mmHg 82%
    05:00 +25°C° 0.1 mm 1 mps 722 mmHg 82%
    06:00 +25°C° 0.1 mm 1 mps 722 mmHg 81%
    07:00 +25°C° 0.1 mm 1 mps 722 mmHg 81%
    08:00 +27°C° 0 mm 1 mps 723 mmHg 72%
    09:00 +29°C° 0 mm 1 mps 723 mmHg 64%
    10:00 +31°C° 0 mm 1 mps 724 mmHg 55%
    11:00 +33°C° 0 mm 1 mps 723 mmHg 50%
    12:00 +34°C° 0 mm 1 mps 722 mmHg 46%
    13:00 +36°C° 0 mm 1 mps 722 mmHg 41%
    14:00 +35°C° 0 mm 1 mps 721 mmHg 42%
    15:00 +35°C° 0 mm 1 mps 720 mmHg 44%
    16:00 +34°C° 0 mm 1 mps 719 mmHg 45%
    17:00 +33°C° 0 mm 1 mps 720 mmHg 49%
    18:00 +31°C° 0 mm 1 mps 720 mmHg 53%
    19:00 +30°C° 0 mm 1 mps 720 mmHg 57%
    20:00 +29°C° 0.2 mm 1 mps 720 mmHg 62%
    21:00 +29°C° 0.2 mm 1 mps 721 mmHg 67%
    22:00 +28°C° 0.2 mm 1 mps 722 mmHg 72%
    23:00 +27°C° 0.4 mm 2 mps 721 mmHg 75%

    Day after tomorrow, 22 February, Thursday

    Time Temperature Precipitation Wind Pressure Humidity
    00:00 +27°C° 0.4 mm 2 mps 721 mmHg 78%
    01:00 +26°C° 0.4 mm 2 mps 721 mmHg 82%
    02:00 +26°C° 0.1 mm 2 mps 721 mmHg 82%
    03:00 +26°C° 0.1 mm 3 mps 721 mmHg 83%
    04:00 +26°C° 0.1 mm 3 mps 721 mmHg 83%
    05:00 +25°C° 0 mm 3 mps 721 mmHg 84%
    06:00 +25°C° 0 mm 3 mps 722 mmHg 85%
    07:00 +25°C° 0 mm 3 mps 722 mmHg 85%
    08:00 +27°C° 0 mm 3 mps 723 mmHg 77%
    09:00 +29°C° 0 mm 3 mps 723 mmHg 69%
    10:00 +31°C° 0 mm 3 mps 724 mmHg 61%
    11:00 +31°C° 1.1 mm 3 mps 723 mmHg 60%
    12:00 +32°C° 1.1 mm 2 mps 723 mmHg 59%
    13:00 +32°C° 1.1 mm 2 mps 722 mmHg 58%
    14:00 +31°C° 2.3 mm 2 mps 721 mmHg 64%
    15:00 +30°C° 2.3 mm 1 mps 720 mmHg 70%
    16:00 +28°C° 2.3 mm 1 mps 720 mmHg 77%
    17:00 +28°C° 0.2 mm 1 mps 720 mmHg 79%
    18:00 +27°C° 0.2 mm 2 mps 720 mmHg 82%
    19:00 +26°C° 0.2 mm 2 mps 721 mmHg 85%
    20:00 +26°C° 0 mm 2 mps 721 mmHg 86%
    21:00 +26°C° 0 mm 1 mps 721 mmHg 86%
    22:00 +25°C° 0 mm 1 mps 722 mmHg 87%
    23:00 +25°C° 0 mm 1 mps 721 mmHg 87%

    23 February, Friday

    Time Temperature Precipitation Wind Pressure Humidity
    00:00 +25°C° 0 mm 1 mps 721 mmHg 88%
    01:00 +23°C° 0 mm 0 mps 721 mmHg 88%
    02:00 +22°C° 0 mm 0 mps 720 mmHg 88%
    03:00 +22°C° 0 mm 0 mps 720 mmHg 89%
    04:00 +22°C° 0 mm 0 mps 720 mmHg 89%
    05:00 +22°C° 0 mm 0 mps 720 mmHg 87%
    06:00 +23°C° 0 mm 0 mps 721 mmHg 85%
    07:00 +23°C° 0 mm 0 mps 721 mmHg 84%
    08:00 +26°C° 0 mm 0 mps 722 mmHg 72%
    09:00 +29°C° 0 mm 0 mps 722 mmHg 60%
    10:00 +34°C° 0 mm 1 mps 723 mmHg 49%
    11:00 +35°C° 0 mm 1 mps 722 mmHg 43%
    12:00 +37°C° 0 mm 1 mps 721 mmHg 38%
    13:00 +40°C° 0 mm 1 mps 720 mmHg 33%
    14:00 +39°C° 0 mm 1 mps 720 mmHg 34%
    15:00 +37°C° 0 mm 1 mps 719 mmHg 36%
    16:00 +36°C° 0 mm 1 mps 719 mmHg 37%
    17:00 +34°C° 0 mm 1 mps 719 mmHg 42%
    18:00 +33°C° 0 mm 1 mps 719 mmHg 46%
    19:00 +31°C° 0 mm 1 mps 720 mmHg 51%
    20:00 +31°C° 0 mm 1 mps 720 mmHg 54%
    21:00 +30°C° 0 mm 1 mps 720 mmHg 57%
    22:00 +29°C° 0 mm 1 mps 721 mmHg 59%
    23:00 +28°C° 0.2 mm 1 mps 721 mmHg 63%

    24 February, Saturday

    Time Temperature Precipitation Wind Pressure Humidity
    00:00 +28°C° 0.2 mm 1 mps 720 mmHg 66%
    01:00 +27°C° 0.2 mm 1 mps 720 mmHg 69%
    02:00 +27°C° 0.2 mm 1 mps 720 mmHg 72%
    03:00 +27°C° 0.2 mm 1 mps 720 mmHg 75%
    04:00 +26°C° 0.2 mm 2 mps 720 mmHg 78%
    05:00 +26°C° 0.3 mm 2 mps 721 mmHg 79%
    06:00 +26°C° 0.3 mm 1 mps 722 mmHg 80%
    07:00 +27°C° 0.3 mm 1 mps 722 mmHg 82%
    08:00 +29°C° 0 mm 2 mps 723 mmHg 73%
    09:00 +31°C° 0 mm 2 mps 723 mmHg 65%
    10:00 +34°C° 0 mm 2 mps 723 mmHg 56%
    11:00 +35°C° 0 mm 2 mps 723 mmHg 52%
    12:00 +36°C° 0 mm 1 mps 722 mmHg 48%
    13:00 +35°C° 0 mm 0 mps 721 mmHg 43%
    14:00 +36°C° 0.6 mm 1 mps 721 mmHg 47%
    15:00 +35°C° 0.6 mm 1 mps 720 mmHg 51%
    16:00 +33°C° 0.6 mm 1 mps 720 mmHg 54%
    17:00 +31°C° 3.1 mm 1 mps 720 mmHg 63%
    18:00 +30°C° 3.1 mm 1 mps 721 mmHg 72%
    19:00 +28°C° 3.1 mm 1 mps 721 mmHg 81%
    20:00 +27°C° 1.6 mm 1 mps 722 mmHg 83%
    21:00 +27°C° 1.6 mm 2 mps 722 mmHg 84%
    22:00 +27°C° 1.6 mm 2 mps 722 mmHg 85%
    23:00 +26°C° 0.3 mm 3 mps 722 mmHg 85%

    25 February, Sunday

    Time Temperature Precipitation Wind Pressure Humidity
    00:00 +26°C° 0.3 mm 3 mps 722 mmHg 85%
    01:00 +26°C° 0.3 mm 3 mps 722 mmHg 85%
    02:00 +25°C° 0.1 mm 3 mps 722 mmHg 86%
    03:00 +25°C° 0.1 mm 2 mps 722 mmHg 88%
    04:00 +25°C° 0.1 mm 2 mps 721 mmHg 89%
    05:00 +25°C° 0.1 mm 2 mps 722 mmHg 89%
    06:00 +25°C° 0.1 mm 2 mps 723 mmHg 89%
    07:00 +25°C° 0.1 mm 2 mps 723 mmHg 89%
    08:00 +27°C° 0 mm 2 mps 724 mmHg 79%
    09:00 +29°C° 0 mm 3 mps 724 mmHg 69%
    10:00 +31°C° 0 mm 3 mps 724 mmHg 59%
    11:00 +33°C° 0.1 mm 3 mps 723 mmHg 55%
    12:00 +34°C° 0.1 mm 3 mps 723 mmHg 52%
    13:00 +36°C° 0.1 mm 3 mps 722 mmHg 48%
    14:00 +35°C° 0.1 mm 2 mps 721 mmHg 49%
    15:00 +35°C° 0.1 mm 2 mps 721 mmHg 50%
    16:00 +35°C° 0.1 mm 2 mps 720 mmHg 50%
    17:00 +32°C° 0.2 mm 2 mps 721 mmHg 56%
    18:00 +31°C° 0.2 mm 2 mps 721 mmHg 62%
    19:00 +29°C° 0.2 mm 2 mps 722 mmHg 68%
    20:00 +28°C° 0.7 mm 3 mps 722 mmHg 72%
    21:00 +28°C° 0.7 mm 3 mps 722 mmHg 77%
    22:00 +27°C° 0.7 mm 3 mps 723 mmHg 81%
    23:00 +26°C° 0 mm 3 mps 722 mmHg 82%
    Show more